Location: Unspecified
(0.0000°N, 0.0000°E)
Time: 15:52:02

ISS - Visible Passes

Search period start: 23 March 2018 00:00
Search period end: 02 April 2018 00:00
Orbit: 403 x 406 km, 51.6° (Epoch: 23 March)

Date Brightness Start Highest point End Pass type
(mag) Time Alt. Az. Time Alt. Az. Time Alt. Az.
24 Mar -3.9 00:22:59 10° NW 00:26:13 78° SW 00:29:29 10° SSE visible
24 Mar -2.3 23:33:35 31° NE 23:34:04 33° NE 23:37:02 10° ESE visible
26 Mar -2.3 00:17:43 18° WSW 00:18:09 18° SW 00:20:30 10° S visible
26 Mar -0.9 23:28:57 11° SSE 23:28:57 11° SSE 23:29:07 10° SSE visible
